Location: Unspecified
(49.2170°N, 0.0000°E)
Time: 22:23:40
(UTC+00:00)

Courier 1B Rocket - Pass Details

Date: 23 January 2021
Orbit: 920 x 1202 km, 28.2° (Epoch: 08 March)

Event Time Altitude Azimuth Distance (km) Brightness Sun altitude
Rises 08:35:05 0° 227° (SW) 3,820 8.0 6.3°
Reaches altitude 10° 08:39:30 10° 202° (SSW) 2,934 7.8 6.8°
Maximum altitude 08:42:36 13° 176° (S) 2,743 8.2 7.2°
Drops below altitude 10° 08:45:47 10° 150° (SSE) 3,020 9.3 7.6°
Sets 08:50:28 0° 125° (SE) 4,034 10.5 8.2°
